Probability
0 1 5 7 9 9 9 10 10 10 9 9 9 8 7 4 2 1 1 1 2 2 1 0 0 0 0 0 0 0 0 0 0 0 0 0 0 0 1 1 2 3 3
0 2 5 8 10 10 10 10 10 10 10 9 8 8 7 5 3 2 1 1 2 3 2 1 1 1 1 1 1 1 1 1 0 0 0 0 0 0 1 1 1 2 3
1 2 6 9 11 12 12 12 11 12 11 9 9 9 8 6 4 3 1 1 2 3 3 3 2 2 2 2 2 2 2 2 1 0 0 0 0 0 0 0 0 1 2
0 2 6 10 13 14 15 14 13 13 11 10 9 9 8 6 5 4 1 0 1 2 3 3 3 3 3 3 3 3 3 3 1 1 1 0 0 0 0 0 0 0 1
2 4 9 13 14 14 15 15 13 11 11 9 9 8 7 6 5 4 1 0 0 2 3 3 3 3 3 3 3 3 3 3 3 2 2 1 0 0 0 0 0 0 0
9 10 14 17 16 15 15 15 13 11 10 9 8 7 7 7 7 5 3 1 1 2 3 3 3 3 3 3 3 3 3 3 3 3 3 2 1 0 0 0 0 0 0
16 17 19 18 19 19 18 16 14 13 12 10 9 7 7 8 8 8 5 2 1 2 3 3 3 2 3 3 3 3 3 3 3 3 3 3 2 1 0 0 0 0 0
17 18 18 18 20 21 20 17 15 14 13 12 9 7 5 6 7 7 5 3 1 1 2 2 2 2 2 3 3 3 3 3 3 3 3 3 3 2 1 0 0 0 0
14 14 15 17 20 22 21 17 14 12 13 13 10 6 5 5 5 4 3 2 1 1 2 2 2 2 2 3 3 3 3 3 3 3 3 3 3 3 1 0 0 0 0
12 12 13 15 19 23 22 18 14 12 11 11 11 8 6 5 4 3 2 2 2 1 2 2 1 1 1 3 3 3 3 4 4 3 3 3 3 3 2 1 0 0 0
11 11 12 13 16 20 21 18 16 13 10 10 11 10 9 7 6 4 3 3 3 4 4 4 3 1 2 3 4 3 4 4 4 4 3 4 3 3 3 2 1 0 0
11 10 10 12 15 18 18 17 17 15 13 11 12 12 11 10 8 6 4 4 6 8 7 7 6 4 3 4 4 4 3 4 4 3 4 4 3 2 2 2 1 0 0
12 12 11 11 15 16 16 16 16 17 17 15 15 14 13 12 10 9 8 8 9 10 9 8 7 5 4 4 4 3 3 3 3 3 4 3 2 1 1 1 0 0 0
14 15 13 12 14 16 14 13 15 17 19 18 17 16 15 13 12 12 12 12 12 11 8 6 6 5 4 4 4 4 4 4 4 4 5 4 2 1 0 0 1 1 1
18 17 15 14 16 16 13 12 13 16 18 19 18 17 16 13 13 14 14 14 12 10 7 5 4 5 5 5 5 5 6 6 6 6 5 4 4 3 2 1 1 2 2
22 20 18 18 18 16 13 11 11 14 16 18 18 17 15 13 13 14 14 14 12 11 9 7 6 6 5 4 4 5 6 6 6 5 4 4 4 5 3 1 1 2 2
27 24 21 20 19 17 14 10 9 10 13 15 16 15 13 13 13 13 14 13 12 12 12 10 9 8 5 2 1 3 3 4 3 3 3 3 4 4 3 2 1 2 2
27 25 22 20 18 17 15 11 8 8 10 13 13 13 13 14 14 14 15 14 14 14 14 13 12 9 5 1 0 1 2 2 2 2 2 3 3 3 2 2 2 3 3
23 22 21 19 16 15 15 14 12 11 11 13 14 14 15 15 15 16 16 16 16 14 14 14 12 8 4 1 0 1 1 3 3 3 3 3 3 1 1 1 1 1 2
19 19 18 18 15 14 15 18 18 16 14 14 15 15 17 17 17 17 17 17 16 14 13 12 10 7 3 1 0 0 1 4 4 3 3 2 2 1 0 0 0 0 0
16 17 17 17 15 15 16 19 20 18 16 16 15 15 17 18 18 17 15 14 13 12 11 9 8 6 3 1 0 0 1 2 3 2 1 1 1 0 0 0 0 0 0
16 17 17 16 15 15 15 16 18 17 16 15 15 14 16 17 17 15 13 11 11 10 9 8 7 4 2 1 0 1 1 1 1 1 0 0 0 0 0 0 0 0 0
15 16 16 15 14 14 14 14 14 15 15 14 15 14 13 13 12 11 10 10 10 9 9 8 5 3 1 0 0 0 0 0 0 0 0 0 0 0 0 0 0 0 0
12 13 13 13 12 12 12 11 11 13 14 14 14 14 11 8 7 6 8 9 9 9 9 7 4 1 0 0 0 0 0 0 0 0 0 0 0 0 0 0 0 0 0
9 10 10 10 10 10 10 10 10 11 13 14 13 12 10 6 4 3 5 6 6 7 7 6 3 1 0 0 0 0 0 0 0 0 0 0 0 0 0 0 0 0 0
8 9 9 8 8 8 9 10 10 11 12 13 12 11 9 6 3 2 3 4 4 5 5 4 3 2 1 0 0 0 0 0 0 0 0 0 0 0 0 0 0 0 0
Wind_Speed
7 7 8 8 7 6 6 5 5 4 3 3 2 2 2 2 2 2 3 3 3 3 3 3 3 3 3 3 3 3 3 3 2 3 3 3 3 3 2 2 2 2 2
6 7 6 7 7 7 6 5 5 4 3 2 2 2 2 2 2 2 3 4 4 3 3 3 3 3 3 4 3 3 3 2 2 2 3 3 3 3 2 2 2 2 2
10 9 8 7 7 7 6 6 5 4 4 3 3 3 3 3 3 3 2 3 3 3 3 4 3 3 3 2 2 2 3 2 1 1 2 2 1 1 2 1 1 1 1
9 9 9 9 8 7 6 6 5 4 4 4 4 5 4 2 1 1 1 2 3 3 3 3 3 3 2 2 1 2 1 2 1 1 1 2 3 2 0 2 1 0 1
9 10 10 10 8 8 7 6 5 4 4 4 5 5 3 2 1 2 3 2 2 2 3 3 3 3 2 2 2 2 2 1 1 1 1 1 2 2 2 0 1 1 1
8 8 8 8 7 7 7 6 5 4 4 4 4 5 5 4 3 3 2 1 1 1 2 2 2 2 1 1 1 1 2 1 1 1 1 2 1 1 1 1 1 0 1
9 8 8 8 8 9 8 6 6 4 4 4 4 4 4 4 4 3 3 2 1 1 0 1 1 1 1 1 1 1 1 1 1 1 1 1 1 1 2 2 1 0 1
8 10 10 9 10 10 9 8 7 5 4 4 3 3 3 3 2 3 3 2 2 1 1 1 1 1 1 1 1 1 1 1 1 1 1 1 0 1 2 2 2 1 1
7 8 8 8 9 9 9 9 8 6 5 4 4 3 3 3 3 3 2 2 1 1 1 1 2 1 1 1 1 1 1 1 1 1 1 1 1 1 1 1 2 3 2
6 6 7 7 8 8 8 8 7 7 5 5 4 4 3 3 3 3 3 2 2 2 2 2 2 1 1 1 1 1 1 1 1 1 1 1 1 1 1 1 1 1 3
7 7 6 6 7 7 8 8 7 6 5 5 4 4 3 3 3 2 2 2 2 2 2 1 2 1 1 1 1 1 1 1 1 1 1 1 1 1 1 1 1 1 2
5 6 6 6 7 7 7 7 7 6 5 5 4 4 3 3 3 2 2 2 2 2 2 2 2 1 1 1 1 1 1 1 1 1 2 2 1 2 1 1 1 1 1
5 5 6 6 6 6 6 6 6 6 5 5 4 3 3 3 3 2 2 2 2 2 2 2 2 1 1 1 0 0 0 0 0 0 1 1 1 1 1 2 1 1 2
6 6 5 5 5 6 5 5 5 5 5 5 4 4 3 3 3 3 2 2 2 2 2 2 1 1 1 1 0 0 0 0 0 0 0 1 1 1 1 1 1 2 2
5 5 5 5 5 5 4 5 5 4 5 5 4 4 3 2 2 2 2 2 2 3 3 2 1 1 1 0 1 1 0 0 0 1 0 0 1 2 2 1 1 2 1
5 4 5 5 5 4 4 4 4 4 5 5 4 3 3 3 2 2 2 2 2 2 2 2 2 1 0 1 2 2 1 0 0 0 1 1 1 1 2 1 2 3 3
5 5 4 5 4 4 5 5 5 4 4 4 3 3 3 3 3 3 2 2 2 2 2 1 1 0 0 2 1 2 1 1 1 1 0 1 1 1 1 1 2 1 1
5 5 4 4 3 3 4 3 4 4 4 3 3 3 3 2 2 2 2 2 2 2 2 1 1 0 1 2 2 3 1 1 0 1 1 1 0 0 1 1 1 2 2
6 5 5 5 4 3 3 4 3 3 3 3 3 3 3 3 2 2 2 2 2 2 2 2 2 1 1 2 2 2 1 1 1 1 0 1 1 1 2 2 1 2 3
5 5 5 5 4 2 3 5 3 2 2 2 3 3 3 3 3 3 2 1 2 2 2 1 1 1 1 1 1 3 2 1 0 1 1 0 0 1 1 1 0 1 3
5 6 6 4 3 3 4 4 3 2 2 1 1 1 2 2 2 1 1 1 0 0 1 1 0 1 1 1 0 2 2 2 1 0 1 1 2 2 1 1 2 3 3
5 6 5 3 2 4 5 3 2 1 1 1 2 1 1 1 2 2 1 1 1 0 0 0 0 1 1 1 0 1 1 1 1 1 1 1 3 4 3 2 2 2 1
4 4 5 4 2 3 4 4 1 1 2 2 2 2 2 2 2 2 2 1 1 1 0 0 0 1 2 2 1 1 1 1 1 1 2 2 3 3 2 2 2 2 0
4 4 5 4 3 2 3 3 2 2 3 3 2 2 2 1 1 1 1 1 1 1 1 1 1 1 1 1 1 1 1 1 1 2 3 3 3 2 2 2 1 1 1
3 4 4 4 3 2 2 2 3 3 3 3 2 1 1 1 1 1 0 1 1 2 3 3 3 2 1 3 2 1 0 0 0 1 2 2 2 2 2 2 2 1 1
4 4 3 3 2 3 2 1 2 3 3 2 1 1 1 1 1 1 1 3 2 1 0 2 2 2 3 2 1 1 1 1 1 2 0 1 1 1 1 1 2 2 2
Wind_Direction
164 158 155 147 140 134 130 127 119 118 113 104 100 95 89 78 63 65 69 76 77 78 80 75 60 60 67 61 62 67 65 55 58 74 59 43 50 79 92 99 119 140 155
156 157 155 152 147 145 138 129 128 128 123 128 127 121 118 104 95 57 53 63 71 72 80 70 64 61 69 56 53 69 66 58 55 88 83 50 21 23 61 89 114 123 132
166 166 162 164 155 150 149 143 137 131 125 117 103 93 74 57 48 47 50 53 69 69 71 73 76 70 74 69 54 63 85 84 20 66 113 117 152 344 5 45 84 111 129
170 172 169 165 162 155 145 135 134 126 121 117 117 120 119 114 122 112 83 63 63 69 75 78 76 73 72 79 73 70 75 104 81 12 52 125 148 136 40 350 4 24 130
174 174 171 164 158 152 144 137 130 124 122 123 129 125 119 123 111 94 87 72 53 61 73 80 79 75 70 67 55 53 61 89 118 104 74 66 56 88 130 184 339 353 323
159 162 159 151 150 146 141 139 132 127 125 125 128 130 131 126 116 111 110 95 65 55 61 85 84 89 82 73 62 64 72 74 79 77 104 124 131 147 135 159 196 277 305
157 154 157 162 157 151 149 145 139 133 135 130 130 136 140 138 140 148 144 132 107 82 74 95 96 87 75 78 66 66 46 47 69 82 95 125 164 164 151 142 157 197 302
166 167 169 170 162 158 155 152 150 148 148 142 140 136 136 137 139 145 145 150 155 157 140 113 105 81 69 62 53 53 25 42 52 49 79 96 45 134 147 153 145 123 341
165 162 166 163 162 162 162 159 155 152 154 153 139 129 134 134 139 141 140 142 140 126 97 103 107 95 82 72 77 55 7 38 33 11 38 55 18 75 129 141 151 149 162
158 156 157 160 163 162 158 154 155 159 159 152 150 143 140 136 133 131 134 138 137 114 105 96 99 91 80 77 77 45 15 53 18 33 57 31 2 36 48 108 117 140 156
162 162 157 158 153 151 153 153 155 150 150 153 147 141 143 141 133 136 146 150 140 131 138 133 112 99 82 73 70 42 41 51 23 21 57 26 30 45 22 62 84 93 128
157 154 147 143 145 149 158 160 162 160 163 158 147 148 147 143 143 152 159 151 148 158 152 126 106 105 93 73 76 43 31 62 43 11 38 6 28 44 36 61 63 71 113
138 137 135 141 149 147 151 157 160 160 155 146 145 147 152 155 164 171 164 153 146 144 135 123 126 129 125 98 85 139 25 46 98 58 69 22 63 50 50 66 71 67 63
135 139 143 145 145 144 149 156 154 147 142 140 145 153 167 172 180 173 157 149 148 146 143 139 147 157 149 116 76 98 51 1 3 61 139 122 128 147 127 95 92 93 73
122 136 143 142 136 135 141 146 142 140 143 142 153 175 177 161 151 153 153 142 147 155 151 141 156 185 166 160 139 139 108 89 52 8 335 172 124 115 126 130 144 126 117
128 126 124 130 132 134 136 135 139 146 144 147 162 170 163 155 156 159 147 137 139 140 138 147 169 192 211 67 95 122 146 145 133 321 327 350 25 31 53 80 136 155 160
130 132 136 136 143 149 147 150 156 145 138 146 156 165 171 172 180 171 150 160 161 142 142 157 143 174 345 48 54 83 111 150 181 211 281 335 18 34 46 40 38 16 217
144 145 140 134 137 140 140 144 144 145 144 152 165 170 167 174 170 154 168 185 168 162 171 171 170 138 344 31 49 74 75 91 311 221 188 177 316 44 92 67 8 324 303
153 150 141 139 134 141 137 129 128 146 151 161 174 181 175 173 166 169 195 185 168 178 188 179 171 172 302 351 40 83 99 75 8 351 130 155 162 31 74 90 33 326 311
123 127 127 119 118 138 131 119 128 130 173 187 187 180 173 171 185 199 196 174 163 186 181 169 172 187 269 315 66 99 121 106 9 350 352 11 30 23 79 127 168 284 288
115 122 116 119 139 132 111 112 129 160 205 184 160 165 169 178 180 167 127 119 109 195 182 174 208 237 243 265 99 118 126 151 157 286 303 299 341 342 319 240 220 243 258
103 112 118 128 129 121 118 115 128 171 120 100 93 90 113 139 119 117 102 103 122 119 240 101 352 315 305 321 338 109 119 128 153 236 262 277 320 325 321 302 290 299 333
117 121 125 124 112 116 123 129 148 123 111 94 95 107 95 78 105 128 137 137 140 134 162 154 255 309 324 334 357 61 84 79 129 252 288 313 323 328 322 325 339 358 21
123 131 129 125 123 120 127 130 131 123 113 105 102 104 110 93 66 75 110 149 174 171 175 175 212 268 311 322 338 353 2 8 7 346 347 357 1 358 348 343 343 340 257
107 117 131 131 128 112 111 119 128 129 125 122 116 109 115 126 91 63 90 184 225 204 196 203 195 193 244 262 228 176 184 228 318 25 10 8 6 3 354 342 333 332 332
114 109 109 114 116 107 97 118 138 129 129 125 129 153 162 168 142 122 20 14 5 354 125 185 186 209 222 233 242 242 204 145 116 104 65 309 309 302 305 315 319 310 298